Temp
75 83 82 78 62 59 56 66 75 77 77 81 85 85 81 81 77 66 84 86 83 78 78 80 80 80 80 80 79 79 79 79 79 79 79 79 79 79 79 79 79 79 80 80 80 80 80 80 80
76 84 81 72 57 50 58 76 74 76 80 84 86 85 82 77 88 87 83 86 84 79 77 78 80 80 80 79 79 79 79 79 79 79 79 79 78 78 78 79 79 79 80 80 80 80 80 80 80
80 83 69 61 56 54 61 74 74 81 85 85 84 89 84 80 88 87 87 86 83 79 79 78 79 80 80 79 79 78 78 79 79 79 79 78 78 78 78 78 79 80 80 81 81 80 79 79 79
80 75 70 56 55 64 70 78 78 79 83 86 85 82 86 90 88 91 92 88 84 81 81 79 79 79 79 80 79 78 78 79 79 79 78 78 78 78 78 78 79 79 80 80 80 79 79 79 78
76 68 55 52 58 69 76 79 79 75 79 82 85 80 79 88 92 92 93 88 83 82 79 78 79 79 79 79 79 79 78 78 78 78 78 78 78 77 77 78 78 79 79 80 79 78 78 77 78
65 67 53 49 59 72 77 80 77 77 80 82 81 82 77 86 88 89 90 91 87 84 78 78 79 79 79 79 79 78 78 78 78 78 78 78 77 77 77 78 78 79 79 79 79 78 77 77 77
61 58 54 57 62 67 75 80 77 80 81 80 80 77 76 84 88 89 89 88 88 86 80 78 77 78 79 78 78 78 77 77 77 77 77 77 77 77 77 77 77 78 78 78 78 77 77 77 77
69 63 58 61 61 63 77 79 78 78 80 90 91 76 70 79 88 88 88 91 87 82 80 77 76 76 76 79 78 77 77 77 77 77 77 77 77 77 77 76 77 77 77 77 77 77 77 76 76
73 59 56 60 63 68 77 75 80 84 81 84 90 88 86 87 88 86 85 86 83 83 79 78 76 75 75 77 79 77 78 77 77 77 77 75 72 73 75 75 77 77 77 77 77 76 76 76 76
63 57 60 70 72 71 76 77 79 77 76 77 81 86 91 87 85 84 83 81 78 81 80 80 77 76 77 81 78 74 77 75 74 74 74 72 71 71 76 76 77 77 77 77 76 76 76 76 70
65 59 67 72 76 78 76 77 82 78 70 74 76 81 85 84 80 83 83 80 78 78 82 81 79 78 79 80 75 74 74 74 74 73 73 71 73 72 74 71 74 70 76 72 74 72 71 70 70
61 70 72 74 78 77 75 79 77 79 76 83 84 82 81 80 79 81 81 80 82 79 80 82 81 80 81 77 76 75 75 73 73 73 72 72 70 70 72 71 71 70 70 70 69 69 70 70 72
63 68 74 76 76 76 77 76 76 76 81 86 83 83 80 79 79 79 83 82 79 80 79 81 81 80 82 77 78 78 77 75 74 74 74 73 70 71 72 73 72 72 72 71 70 70 72 71 73
67 68 69 73 72 72 71 74 73 77 80 83 82 79 81 80 79 76 79 80 77 80 77 82 80 80 78 78 80 78 75 78 77 77 76 74 74 73 73 73 74 73 74 74 73 72 73 72 74
68 61 65 68 67 68 70 66 69 74 79 77 78 77 79 79 80 79 79 77 75 74 76 78 79 79 83 80 79 79 81 79 79 78 77 78 75 75 74 74 74 74 74 74 73 74 73 72 73
59 59 49 61 68 70 65 57 70 74 74 72 76 77 77 75 77 77 76 74 74 75 75 74 80 78 78 78 77 80 78 80 81 79 79 79 78 76 75 74 74 74 74 74 73 72 71 70 70
52 47 50 57 68 68 65 61 69 74 73 69 71 71 75 73 74 74 75 71 71 72 73 74 74 76 76 76 76 75 77 77 79 78 77 79 78 78 75 74 73 74 73 73 73 72 71 70 69
47 49 55 56 65 67 64 63 70 71 71 69 66 69 70 71 72 74 72 71 69 70 72 72 72 72 74 74 73 74 74 76 76 76 76 77 79 78 76 73 73 74 72 72 72 71 70 70 70
59 56 55 61 67 65 61 60 64 67 66 65 67 68 68 70 73 72 71 70 69 69 71 71 70 71 71 71 70 69 72 73 73 74 76 77 76 77 78 75 72 72 72 72 71 70 70 70 70
60 56 52 59 65 65 61 59 63 65 64 64 65 65 67 67 70 72 68 68 68 67 69 69 70 69 70 72 71 72 72 72 73 74 74 74 76 75 76 75 73 75 71 70 70 69 68 68 69
57 53 53 54 61 64 60 55 58 63 66 70 71 67 67 66 66 69 70 66 65 65 66 68 68 69 67 68 69 69 69 71 71 73 73 74 75 75 75 75 76 73 74 76 72 72 70 72 67
50 61 61 58 53 41 56 38 51 58 60 66 70 71 65 67 68 69 66 64 64 65 66 66 67 67 68 67 65 68 69 70 73 73 74 73 75 75 76 75 76 76 77 77 75 74 73 70 66
55 63 56 56 51 45 49 39 46 57 58 62 67 70 65 66 65 65 66 67 66 67 65 65 65 66 66 67 67 68 65 65 67 68 70 72 74 75 76 75 74 75 76 75 74 73 73 70 68
65 56 52 50 44 34 46 43 46 51 58 63 63 65 67 67 66 65 65 67 67 67 66 65 65 65 65 65 65 66 65 68 67 67 65 67 68 71 72 74 73 75 75 74 74 74 71 74 73
53 46 30 28 29 32 49 45 47 56 64 66 65 63 65 65 65 65 64 64 64 64 65 64 64 63 65 66 65 66 66 66 67 67 68 66 65 67 68 69 68 71 74 75 75 74 75 75 72
42 43 33 25 25 33 47 36 46 60 65 65 67 64 63 63 65 64 64 65 65 66 64 65 64 64 64 65 65 66 64 65 66 67 67 67 66 67 68 67 66 66 69 70 70 72 74 77 76
47 37 46 37 38 30 37 45 56 61 62 65 65 63 61 62 62 63 63 64 65 65 64 66 65 65 65 65 65 64 65 64 64 65 65 66 66 69 69 67 66 67 68 70 70 70 73 71 75
50 53 37 33 28 24 36 41 41 51 56 62 62 61 60 62 64 62 64 64 65 66 65 63 64 65 66 65 65 66 65 65 65 65 65 65 65 66 68 67 68 70 72 71 68 70 72 72 71
43 41 41 38 35 27 26 34 49 51 54 56 58 61 58 60 63 63 63 64 65 64 63 62 62 63 63 64 64 64 65 65 65 64 66 66 65 67 69 70 68 68 71 73 71 73 76 74 74
46 41 37 31 29 33 30 32 57 54 56 59 58 62 60 63 60 62 63 64 65 64 64 64 64 64 64 64 63 63 65 65 65 65 65 65 65 66 67 69 72 72 72 71 74 74 76 74 72
MSLP
1009.47 1009.08 1008.74 1008.83 1009.54 1008.96 1008.07 1005.85 1004.52 1003.39 1002.22 1001.15 1000.03 1000.40 1001.27 1001.54 1002.79 1005.02 1005.22 1005.12 1005.59 1006.93 1007.34 1008.29 1008.49 1008.17 1008.47 1009.25 1010.01 1010.60 1011.11 1011.54 1011.95 1012.27 1012.73 1013.26 1013.55 1013.98 1014.35 1014.55 1014.87 1015.08 1015.31 1015.44 1015.56 1015.84 1016.04 1016.17 1016.11
1009.74 1009.17 1008.54 1008.75 1009.39 1008.97 1007.17 1004.54 1004.54 1003.29 1001.97 1000.91 1000.07 1000.30 1001.25 1002.79 1003.18 1004.35 1005.44 1005.66 1005.67 1006.48 1007.34 1008.16 1008.46 1008.57 1008.52 1009.02 1009.98 1010.53 1011.10 1011.58 1012.06 1012.40 1012.80 1013.34 1013.69 1014.13 1014.58 1014.74 1014.97 1015.24 1015.47 1015.68 1015.85 1015.97 1016.09 1016.04 1016.17
1009.75 1009.49 1009.89 1009.34 1009.11 1008.34 1006.24 1003.98 1003.92 1002.83 1001.64 1001.40 1000.71 1000.33 1001.47 1003.03 1003.37 1003.95 1004.60 1005.51 1006.14 1006.67 1007.16 1007.97 1008.35 1008.41 1008.83 1009.07 1009.69 1010.62 1010.91 1011.49 1012.04 1012.55 1012.92 1013.32 1013.78 1014.18 1014.58 1014.85 1014.98 1015.17 1015.48 1015.70 1015.91 1016.12 1016.26 1016.16 1016.19
1009.65 1009.46 1009.77 1009.47 1009.04 1007.38 1005.68 1004.37 1003.98 1002.91 1002.21 1001.59 1001.45 1001.95 1002.88 1002.77 1003.31 1003.45 1004.08 1005.05 1005.94 1006.66 1006.93 1007.96 1008.34 1008.45 1008.46 1009.14 1009.80 1010.79 1011.05 1011.49 1012.05 1012.56 1012.97 1013.34 1013.74 1014.08 1014.50 1014.89 1015.04 1015.25 1015.45 1015.69 1015.90 1016.17 1016.32 1016.46 1016.46
1009.92 1009.95 1010.07 1009.66 1008.80 1007.13 1005.04 1004.24 1003.65 1003.04 1002.80 1002.48 1002.04 1002.42 1003.51 1003.51 1003.33 1003.36 1003.48 1004.54 1005.20 1006.44 1006.79 1007.77 1008.59 1008.78 1008.88 1008.92 1009.55 1010.61 1011.54 1011.76 1012.21 1012.76 1013.17 1013.49 1013.82 1014.21 1014.54 1014.86 1015.02 1015.12 1015.42 1015.66 1015.91 1016.15 1016.40 1016.49 1016.59
1010.47 1009.90 1010.16 1009.90 1008.54 1006.87 1004.71 1003.76 1003.27 1002.90 1002.77 1002.75 1002.70 1002.90 1003.98 1003.71 1003.34 1003.31 1003.52 1003.57 1004.92 1005.70 1006.79 1007.47 1008.45 1008.93 1009.39 1009.39 1009.41 1010.03 1011.28 1012.04 1012.48 1012.88 1013.31 1013.69 1013.97 1014.33 1014.71 1014.91 1015.09 1015.20 1015.35 1015.54 1015.80 1016.16 1016.23 1016.39 1016.40
1010.39 1010.33 1009.80 1009.56 1008.25 1006.62 1004.80 1003.34 1002.91 1002.80 1002.79 1002.87 1003.11 1003.53 1004.42 1003.99 1003.68 1003.49 1003.61 1002.97 1004.59 1005.55 1006.39 1007.04 1008.14 1009.07 1009.65 1009.97 1009.75 1010.22 1010.99 1011.82 1012.49 1012.94 1013.40 1013.91 1014.16 1014.29 1014.75 1015.02 1015.17 1015.26 1015.36 1015.59 1015.91 1016.11 1016.20 1016.36 1016.42
1009.62 1010.06 1009.40 1008.88 1007.98 1006.30 1004.54 1003.75 1002.83 1002.59 1002.70 1002.63 1002.85 1003.44 1004.56 1004.21 1003.76 1003.79 1003.80 1003.50 1005.00 1005.83 1006.37 1007.12 1007.68 1008.60 1009.67 1010.28 1010.44 1010.46 1011.07 1011.75 1012.26 1012.78 1013.29 1013.72 1014.29 1014.68 1014.81 1015.16 1015.33 1015.46 1015.51 1015.61 1015.75 1015.92 1016.07 1016.13 1016.30
1009.15 1009.29 1008.44 1007.95 1007.45 1006.05 1004.55 1004.05 1003.00 1002.47 1002.62 1002.72 1002.73 1002.89 1003.79 1003.83 1003.61 1004.07 1004.59 1004.54 1005.58 1006.02 1006.02 1006.73 1007.82 1008.67 1009.43 1010.05 1010.62 1010.77 1011.19 1011.66 1012.21 1012.79 1013.28 1013.74 1014.08 1014.40 1014.85 1015.10 1015.31 1015.36 1015.56 1015.62 1015.66 1015.64 1015.83 1016.12 1016.28
1008.82 1008.45 1007.93 1007.32 1006.55 1005.63 1004.29 1003.59 1003.66 1003.41 1002.73 1002.93 1003.02 1002.75 1003.13 1003.61 1003.73 1004.41 1005.01 1005.58 1006.43 1006.69 1007.02 1006.37 1007.17 1008.17 1009.05 1009.84 1010.54 1010.92 1011.12 1011.79 1012.40 1012.74 1013.16 1013.65 1014.02 1014.30 1014.37 1014.72 1014.98 1015.12 1015.20 1015.40 1015.45 1015.46 1015.57 1015.87 1016.19
1008.28 1007.46 1007.65 1006.76 1005.82 1005.06 1004.06 1003.04 1002.86 1003.26 1003.05 1002.99 1003.07 1003.08 1003.37 1004.08 1004.35 1004.42 1004.77 1005.40 1005.99 1006.50 1007.38 1007.55 1006.73 1007.68 1008.58 1009.47 1010.44 1011.06 1011.30 1011.67 1012.38 1012.69 1013.03 1013.47 1013.71 1013.98 1014.20 1014.54 1014.78 1015.03 1015.00 1015.18 1015.21 1015.28 1015.33 1015.44 1015.69
1007.44 1006.93 1006.54 1005.76 1005.07 1004.42 1003.75 1003.15 1002.45 1002.59 1002.50 1002.60 1002.97 1003.28 1003.71 1004.31 1004.45 1004.44 1004.69 1004.94 1005.55 1006.27 1006.43 1006.87 1007.71 1007.10 1007.81 1008.88 1009.90 1010.46 1011.07 1011.55 1011.89 1012.47 1012.77 1013.10 1013.40 1013.74 1013.90 1014.13 1014.35 1014.68 1014.79 1014.84 1014.92 1015.10 1015.04 1015.04 1015.00
1006.73 1006.36 1005.58 1004.85 1004.30 1003.84 1003.44 1002.79 1002.64 1002.16 1002.56 1002.56 1002.54 1003.18 1003.71 1004.16 1004.66 1004.46 1004.54 1004.58 1005.13 1006.00 1006.01 1007.03 1007.37 1007.58 1007.33 1008.25 1009.18 1009.66 1010.22 1010.87 1011.38 1011.83 1012.33 1012.74 1013.00 1013.26 1013.43 1013.73 1013.98 1014.11 1014.39 1014.38 1014.40 1014.69 1014.50 1014.54 1014.45
1006.43 1005.83 1005.09 1004.43 1003.92 1003.54 1003.30 1002.88 1002.76 1001.92 1002.28 1002.73 1002.79 1002.95 1003.11 1003.82 1004.40 1004.50 1004.77 1004.94 1005.17 1005.61 1006.15 1006.27 1007.29 1007.35 1007.82 1008.07 1008.73 1009.22 1009.40 1009.98 1010.34 1011.02 1011.48 1012.02 1012.45 1012.76 1012.97 1013.23 1013.41 1013.57 1013.75 1013.86 1014.04 1014.00 1013.96 1013.99 1013.90
1006.48 1006.04 1005.18 1004.55 1004.03 1003.58 1003.25 1003.23 1002.60 1002.44 1002.46 1002.48 1002.80 1003.03 1003.17 1003.49 1003.75 1004.37 1004.77 1005.06 1005.44 1006.17 1006.26 1006.07 1006.71 1007.45 1007.29 1007.74 1008.02 1008.78 1008.83 1009.70 1009.93 1010.27 1010.53 1011.07 1011.78 1012.15 1012.33 1012.66 1012.74 1012.81 1013.07 1013.20 1013.58 1013.39 1013.34 1013.69 1013.77
1007.18 1006.56 1005.98 1004.90 1004.31 1003.71 1003.83 1002.92 1002.56 1002.38 1002.77 1002.85 1002.84 1002.88 1003.07 1003.46 1003.62 1003.97 1004.73 1005.04 1005.34 1006.01 1006.76 1006.52 1005.87 1006.69 1007.00 1007.30 1007.52 1007.59 1008.28 1008.74 1009.00 1009.60 1010.16 1010.40 1010.96 1011.52 1011.90 1012.27 1012.37 1012.43 1012.53 1012.69 1013.02 1013.28 1013.31 1013.40 1013.53
1007.47 1007.19 1006.37 1005.08 1004.16 1003.80 1003.65 1002.66 1002.55 1002.30 1002.79 1002.84 1002.81 1002.83 1002.90 1003.17 1003.57 1004.11 1004.81 1005.28 1005.54 1005.84 1006.38 1006.88 1006.71 1006.36 1006.71 1007.04 1007.42 1007.77 1007.94 1008.34 1007.96 1008.66 1009.77 1010.04 1010.52 1011.00 1011.34 1011.83 1011.97 1012.26 1012.61 1012.65 1012.79 1013.01 1013.01 1013.27 1013.15
1007.64 1006.78 1005.77 1004.77 1003.62 1003.19 1002.99 1002.26 1002.25 1002.35 1002.72 1002.81 1002.92 1002.74 1003.20 1003.68 1003.79 1004.23 1004.76 1005.15 1005.74 1006.09 1006.40 1006.92 1007.19 1007.16 1006.59 1007.29 1007.68 1007.79 1008.24 1008.07 1007.97 1008.33 1008.63 1009.66 1009.98 1010.36 1010.85 1011.24 1011.48 1011.71 1012.42 1012.46 1012.54 1012.68 1012.67 1012.82 1012.66
1006.55 1006.08 1005.29 1004.20 1003.40 1003.08 1002.65 1001.51 1001.73 1002.06 1002.28 1002.34 1002.54 1002.96 1003.15 1003.47 1003.76 1004.18 1004.90 1005.21 1005.71 1006.27 1006.57 1006.85 1007.11 1007.51 1007.40 1006.94 1007.50 1007.98 1007.96 1008.12 1007.97 1008.69 1007.94 1009.28 1009.55 1009.99 1010.34 1011.10 1011.18 1011.44 1011.82 1012.05 1012.20 1012.30 1012.51 1012.48 1011.77
1005.56 1005.39 1004.98 1003.99 1003.47 1003.35 1003.08 1002.37 1001.69 1001.76 1002.02 1002.34 1002.76 1002.86 1003.02 1003.41 1003.70 1004.55 1005.32 1005.63 1005.89 1006.44 1006.76 1007.03 1007.42 1007.62 1007.72 1007.53 1007.06 1007.35 1007.99 1007.89 1008.15 1008.45 1008.54 1009.49 1008.83 1009.45 1010.23 1010.51 1010.80 1011.27 1011.62 1011.76 1011.84 1012.04 1012.32 1012.73 1012.42
1005.04 1005.15 1004.86 1004.67 1004.21 1003.69 1003.74 1003.13 1002.50 1002.10 1002.02 1002.02 1001.98 1002.54 1002.77 1003.06 1003.64 1004.02 1005.06 1005.70 1006.26 1006.69 1006.93 1007.25 1007.60 1007.83 1007.79 1007.67 1008.02 1008.19 1007.80 1008.24 1008.35 1008.86 1008.44 1007.63 1009.54 1008.30 1009.72 1009.99 1010.19 1010.56 1010.89 1011.19 1011.63 1011.53 1011.61 1012.05 1012.19
1004.78 1004.95 1005.08 1005.48 1005.19 1005.26 1004.53 1004.36 1003.30 1002.68 1002.19 1002.12 1001.72 1001.85 1002.38 1002.67 1003.02 1003.44 1004.43 1005.41 1006.02 1006.53 1006.86 1007.29 1007.64 1007.77 1007.80 1007.92 1008.47 1008.51 1008.53 1007.15 1007.89 1007.90 1008.50 1008.53 1008.66 1008.25 1008.95 1009.64 1010.03 1010.00 1010.43 1010.57 1010.80 1011.52 1010.94 1011.93 1012.12
1004.82 1005.09 1005.66 1006.15 1006.51 1005.98 1005.31 1005.33 1003.51 1002.88 1002.30 1001.58 1001.05 1000.90 1001.78 1002.20 1002.59 1003.41 1004.27 1004.81 1005.47 1006.02 1006.74 1007.21 1007.60 1007.83 1007.93 1008.13 1008.28 1008.46 1008.71 1008.27 1007.09 1007.88 1007.70 1007.72 1007.94 1008.41 1008.99 1008.86 1009.43 1009.53 1009.53 1009.86 1010.19 1010.52 1010.89 1011.13 1011.46
1004.87 1005.54 1006.37 1007.13 1007.69 1007.38 1006.13 1006.05 1003.81 1003.27 1002.26 1001.35 1001.05 1000.52 1001.19 1002.00 1002.80 1003.67 1004.37 1004.97 1005.54 1005.86 1006.47 1006.96 1007.40 1007.69 1007.70 1007.80 1007.78 1007.79 1007.82 1007.65 1007.59 1007.01 1007.45 1007.69 1008.05 1008.34 1008.53 1008.34 1008.40 1008.99 1009.21 1009.54 1009.44 1009.65 1009.84 1010.07 1010.17
1006.84 1007.33 1008.53 1009.02 1008.94 1007.77 1007.06 1006.46 1003.64 1003.04 1001.98 1000.48 1000.34 1000.42 1000.90 1001.79 1002.87 1003.79 1004.55 1005.31 1005.66 1006.14 1006.51 1006.89 1007.19 1007.40 1007.39 1007.43 1007.49 1007.43 1007.38 1007.61 1007.77 1006.66 1007.95 1007.82 1007.51 1007.90 1007.61 1008.47 1008.83 1008.78 1008.31 1008.68 1009.37 1008.31 1009.25 1009.39 1009.34
1009.24 1010.27 1010.42 1010.02 1009.98 1008.84 1007.88 1006.13 1004.08 1002.69 1001.87 999.30 998.99 1000.02 1000.91 1001.88 1002.74 1003.40 1003.97 1004.46 1005.20 1005.83 1006.34 1006.62 1007.00 1007.19 1007.28 1007.19 1007.23 1006.96 1007.13 1007.14 1006.93 1007.17 1007.22 1007.30 1007.21 1007.03 1007.85 1008.18 1008.18 1008.10 1007.87 1008.24 1009.00 1009.23 1009.16 1009.27 1008.39
1008.56 1010.37 1009.61 1010.72 1010.74 1010.37 1008.24 1005.90 1004.00 1003.16 1002.38 1000.98 1000.62 1001.13 1001.86 1002.36 1002.98 1003.28 1003.82 1004.25 1004.59 1005.11 1005.72 1005.86 1006.19 1006.51 1006.71 1006.82 1006.96 1006.94 1006.69 1006.84 1006.77 1006.43 1006.47 1006.76 1006.92 1007.21 1007.49 1007.70 1007.35 1006.90 1006.41 1007.30 1008.17 1008.43 1008.42 1008.78 1007.32
1008.18 1008.74 1010.51 1011.54 1011.30 1010.19 1008.00 1006.16 1004.78 1003.99 1003.74 1002.84 1002.65 1002.10 1002.33 1002.45 1002.83 1003.47 1003.82 1004.06 1004.24 1004.55 1004.68 1005.04 1005.37 1005.79 1005.99 1006.27 1006.41 1006.36 1006.36 1006.41 1006.36 1006.37 1006.43 1006.36 1006.31 1006.82 1006.69 1006.75 1006.72 1006.13 1006.26 1007.07 1007.69 1007.99 1006.49 1006.74 1006.50
1008.52 1009.14 1010.40 1011.58 1010.60 1009.83 1008.81 1006.49 1004.89 1004.51 1004.22 1003.66 1003.69 1003.77 1002.99 1002.83 1003.15 1003.41 1003.67 1003.69 1003.88 1004.03 1004.48 1004.77 1005.02 1005.27 1005.49 1005.63 1005.74 1005.81 1005.95 1006.01 1006.01 1006.13 1006.07 1006.05 1005.83 1005.73 1005.59 1005.63 1005.94 1005.88 1005.71 1005.66 1005.95 1005.47 1004.96 1005.13 1005.36
1009.17 1010.15 1011.65 1012.10 1011.04 1009.66 1009.02 1006.51 1004.84 1004.24 1004.11 1003.93 1004.79 1003.50 1003.72 1004.35 1004.55 1004.10 1003.19 1002.94 1003.14 1003.59 1004.05 1004.30 1004.50 1004.86 1005.16 1005.50 1005.74 1005.79 1005.54 1005.32 1005.28 1005.25 1005.24 1005.22 1005.42 1005.32 1005.19 1005.18 1005.10 1005.11 1005.06 1004.80 1004.42 1004.25 1004.40 1004.57 1004.54
Wind_Speed
8 11 5 1 4 2 5 12 6 16 8 5 5 10 23 14 8 8 4 15 22 15 13 13 16 21 23 21 18 17 17 17 17 17 16 15 15 14 13 13 13 12 12 11 11 9 8 7 7
5 7 3 1 3 1 8 17 5 7 5 6 6 5 15 13 11 8 8 14 18 18 13 12 17 18 22 22 18 18 18 17 17 17 16 15 15 14 12 12 12 11 11 10 9 8 7 7 6
6 4 2 1 4 7 6 8 5 10 8 9 7 5 9 8 10 4 14 18 16 15 13 13 17 19 20 22 21 17 18 18 17 16 16 15 15 14 12 11 11 11 11 9 9 7 6 6 5
5 4 4 1 10 14 13 11 7 5 10 6 6 9 7 8 5 5 17 19 17 15 14 15 16 17 21 21 21 16 17 17 17 16 16 15 15 14 13 11 11 10 10 9 8 6 5 4 3
2 2 2 4 9 12 16 9 7 2 7 8 5 4 8 5 6 8 9 18 18 15 13 15 15 15 18 22 22 19 14 15 16 15 14 14 13 12 12 10 10 10 9 8 8 6 5 4 3
3 2 3 5 9 16 19 11 2 3 5 8 8 7 5 4 10 8 1 10 16 19 16 16 16 14 14 18 22 22 17 14 14 14 14 13 13 11 10 10 9 9 9 8 8 6 6 5 5
5 3 6 10 13 17 17 9 5 6 8 3 3 7 2 10 9 9 10 2 20 18 17 16 14 12 12 13 20 21 20 17 15 14 13 11 11 11 9 8 8 8 8 7 7 6 6 6 6
5 4 11 12 14 19 20 8 6 6 4 8 4 1 0 2 9 10 11 10 19 15 15 15 15 12 9 10 15 21 20 18 16 15 13 13 11 10 9 8 7 7 8 8 8 8 8 8 8
6 9 12 15 17 16 20 12 5 7 5 4 10 5 9 8 10 9 9 9 15 11 16 16 14 12 10 9 12 16 19 18 17 14 14 11 5 7 7 7 9 8 8 8 9 9 9 9 9
7 9 17 10 13 15 20 16 7 4 4 4 5 4 1 7 10 5 6 7 6 10 8 16 17 15 12 10 11 7 11 8 7 8 9 5 6 6 8 9 12 12 11 10 10 10 10 8 4
11 17 12 15 16 20 22 23 16 8 7 4 8 9 7 7 7 6 4 4 5 7 8 7 16 16 14 10 8 4 5 6 5 8 8 6 5 5 5 3 4 4 9 4 6 6 4 6 5
13 16 17 18 19 20 18 15 18 10 9 10 18 6 3 7 7 7 1 2 6 5 9 14 11 17 15 10 9 8 6 5 6 6 8 7 4 5 5 4 6 5 4 6 5 4 6 7 7
12 13 18 18 17 18 14 18 15 16 1 15 8 7 4 6 6 4 5 2 2 7 7 10 11 9 13 14 10 10 10 8 7 7 8 6 5 5 5 5 5 6 5 6 6 5 7 7 8
7 10 12 14 14 9 8 14 6 13 7 5 11 12 10 8 8 3 5 6 3 5 5 10 7 8 6 8 10 8 7 10 10 9 9 8 7 6 5 5 6 5 6 6 6 7 8 7 7
9 10 10 12 7 7 4 12 21 5 7 10 7 7 9 11 8 6 8 6 8 4 5 10 10 6 12 12 10 7 9 8 9 9 12 13 8 9 7 5 5 5 5 7 5 8 5 4 4
8 8 6 8 9 11 4 20 16 8 8 12 8 7 6 9 6 5 5 9 8 7 6 2 8 8 7 5 5 8 5 10 9 8 10 14 13 8 7 5 5 4 4 4 4 4 4 3 3
5 9 10 13 13 15 12 24 13 8 8 8 9 4 9 8 6 5 9 8 7 8 6 5 1 8 7 6 5 2 8 4 6 7 5 11 11 9 6 5 4 4 4 5 3 4 3 3 4
9 9 9 16 18 15 23 24 19 11 10 9 4 4 3 6 5 5 10 10 9 8 6 5 4 4 8 5 4 4 1 3 4 3 6 9 10 12 8 5 6 5 4 5 4 5 5 5 5
17 17 18 15 11 11 15 7 8 6 6 6 8 7 7 7 6 5 7 9 9 8 7 4 4 5 2 3 4 1 4 3 1 3 5 7 7 8 10 6 5 5 6 6 6 4 5 6 5
14 16 9 11 11 14 13 10 5 5 5 5 7 8 10 8 8 9 8 6 8 8 6 4 3 4 4 3 0 4 1 1 1 2 5 8 7 7 9 8 6 8 4 5 6 5 0 3 3
8 8 6 10 15 17 13 11 5 3 5 10 12 9 10 12 12 11 15 10 9 9 8 6 3 1 3 6 3 3 2 1 2 4 5 3 8 8 7 7 9 8 7 9 7 7 8 10 2
8 8 12 15 10 7 5 7 6 4 8 13 20 17 9 10 11 11 8 10 10 8 8 8 5 1 2 3 3 5 8 8 6 3 2 5 7 4 9 9 10 10 9 12 10 7 8 5 4
10 6 4 8 14 6 12 3 5 5 15 18 16 21 8 8 10 10 10 10 8 9 8 8 7 5 4 5 4 4 5 5 4 3 7 6 8 10 12 10 10 11 9 10 10 10 9 5 4
10 3 5 6 3 4 11 5 17 11 15 20 7 10 11 11 11 11 9 9 7 5 7 8 8 6 6 5 5 4 5 5 4 2 2 3 1 3 7 5 6 9 9 11 10 8 9 12 11
17 4 2 4 1 10 2 5 15 16 19 25 16 12 11 11 14 13 12 9 8 7 7 7 8 7 8 7 6 6 5 4 6 0 4 4 4 3 4 5 7 7 9 10 9 5 11 13 12
11 3 5 7 5 7 4 7 9 12 19 11 12 11 10 12 11 11 11 9 9 9 9 10 8 3 6 7 8 7 6 4 3 4 4 3 2 2 6 12 11 12 12 2 6 8 12 15 15
3 6 20 5 5 4 5 7 9 8 19 7 8 10 9 9 9 10 9 10 10 9 10 9 8 6 4 5 6 7 7 7 6 7 5 3 4 4 7 8 9 10 7 5 17 23 21 15 14
10 2 2 1 3 5 5 6 4 2 7 6 9 6 7 6 8 7 8 8 7 9 10 9 10 10 10 9 7 6 7 7 7 6 7 7 6 6 7 7 8 8 12 19 17 17 18 15 13
3 2 4 5 5 5 2 5 3 4 3 6 10 10 3 8 5 6 7 8 7 5 6 8 8 9 8 8 8 7 7 7 7 7 8 8 7 7 7 8 7 7 9 13 17 18 16 15 13
4 6 4 4 8 2 5 8 7 2 4 6 6 14 9 11 11 10 9 9 8 8 7 8 8 8 7 6 5 7 7 8 8 7 8 7 7 7 7 7 10 9 10 10 13 14 15 15 11
Wind_Direction
318 309 290 297 52 100 240 254 245 295 301 297 37 76 74 55 80 112 144 119 122 134 138 156 152 140 134 132 134 133 130 127 123 121 119 118 116 113 113 111 113 117 121 120 117 109 99 85 80
320 319 327 270 127 298 258 248 349 303 350 352 32 74 71 76 81 82 109 128 134 137 141 148 156 145 138 135 136 136 135 132 130 129 129 130 123 120 121 121 122 122 123 120 113 109 107 104 94
279 192 359 172 215 212 243 215 43 336 3 356 12 17 84 115 55 95 126 137 136 139 140 152 157 150 142 138 135 143 141 140 135 135 138 136 131 130 133 133 131 132 130 124 119 118 118 118 115
322 351 322 121 262 267 263 305 332 20 337 15 349 81 61 93 101 153 127 137 139 151 141 153 158 154 145 142 138 143 144 141 139 142 144 140 139 141 142 144 141 137 135 132 129 130 135 126 136
274 287 260 233 250 266 275 266 294 39 337 331 8 35 82 41 77 80 134 151 145 155 143 149 156 151 151 144 141 138 143 141 142 143 142 141 143 145 145 149 149 144 141 138 143 147 150 161 200
307 151 253 258 259 260 273 263 211 87 334 325 6 77 58 18 27 357 89 145 160 153 148 147 148 150 157 151 143 139 139 140 140 140 142 145 144 144 149 155 155 150 149 154 157 162 174 194 214
198 246 241 259 264 272 270 279 201 184 205 252 31 34 20 39 13 1 358 255 162 150 145 146 143 148 154 159 142 138 137 139 139 138 139 145 147 144 153 164 164 162 162 165 167 184 200 220 232
220 245 252 252 259 264 275 278 182 158 252 283 248 226 243 122 41 11 6 319 140 143 140 142 139 137 140 159 148 141 141 142 143 143 145 144 145 145 159 173 179 173 175 179 187 198 215 223 238
257 241 247 246 255 269 278 285 237 198 178 250 258 222 154 111 64 25 7 355 132 145 146 144 142 141 141 143 160 144 143 144 144 145 146 145 147 154 174 182 195 193 194 195 203 207 219 235 244
211 243 240 247 261 263 274 280 254 273 174 251 274 291 262 104 103 67 24 353 49 149 164 153 147 150 152 157 163 147 145 142 146 147 150 155 164 175 182 193 205 199 198 205 212 217 219 231 232
236 242 249 255 245 256 265 274 281 213 202 219 214 251 261 117 102 89 33 22 71 126 164 184 154 155 158 151 150 157 147 145 152 155 163 171 181 184 192 188 198 198 203 206 213 222 214 205 213
241 246 240 249 258 265 267 285 287 288 209 160 226 217 118 84 124 120 47 24 343 103 160 166 185 158 162 142 160 156 156 159 161 172 170 178 180 189 200 178 182 188 200 212 211 216 219 222 225
255 256 254 258 249 256 271 272 279 283 154 208 114 244 186 133 169 148 168 208 4 105 113 166 171 184 161 148 162 167 167 167 170 169 175 178 186 190 193 185 185 192 194 209 218 208 219 220 227
260 265 259 262 260 252 252 273 280 276 323 249 174 181 168 238 171 199 237 210 141 99 133 139 169 174 146 143 157 174 149 178 168 177 181 177 186 202 194 191 190 191 197 212 216 210 221 220 220
297 304 301 284 288 269 345 298 266 278 301 286 251 179 193 197 204 186 208 158 118 74 114 118 147 192 170 153 152 152 171 181 178 180 180 186 183 201 200 202 208 203 198 197 214 232 231 220 219
308 301 283 290 279 273 185 265 268 252 245 260 251 246 229 200 188 180 172 139 127 101 69 2 126 159 181 159 171 154 154 167 185 171 186 189 195 186 192 195 211 218 228 228 202 210 222 225 229
277 260 269 272 236 245 205 245 244 239 264 277 260 282 224 180 197 209 132 133 119 110 74 35 282 167 181 154 138 155 154 157 159 148 175 192 192 191 173 191 196 210 232 228 221 239 195 221 238
266 261 250 250 264 251 235 238 227 215 224 226 247 139 97 158 193 162 149 133 124 111 94 46 5 263 164 146 146 129 309 191 151 177 141 173 187 190 190 195 199 198 223 240 213 198 211 210 210
245 261 271 275 294 325 315 214 171 229 234 214 204 208 200 205 211 128 147 125 118 109 99 78 29 315 263 158 139 171 182 182 157 204 163 178 172 189 199 216 197 199 213 217 212 211 213 244 167
278 282 287 309 320 312 299 284 228 224 244 213 231 224 204 202 193 147 147 140 137 136 131 107 21 339 321 302 143 138 140 230 234 222 172 213 169 182 200 198 204 215 221 222 219 202 248 277 238
291 275 298 290 298 294 299 294 230 254 288 286 268 208 211 193 186 183 160 165 146 142 152 153 165 354 341 335 339 360 118 22 155 220 196 120 243 174 211 206 208 202 204 233 228 216 200 245 291
290 290 306 328 283 256 322 272 276 277 260 254 248 242 210 189 186 189 155 134 143 163 155 147 149 220 277 291 276 261 261 179 208 176 272 177 231 241 208 209 218 212 218 229 221 241 223 218 191
270 285 343 330 317 346 302 334 281 274 279 275 271 232 182 127 118 121 138 138 142 131 148 158 162 186 226 243 210 209 255 274 136 210 183 205 201 221 228 209 205 216 216 223 212 214 231 209 192
235 240 1 332 299 296 268 258 285 260 264 278 256 148 143 124 112 109 102 107 117 137 145 159 159 207 210 223 257 264 270 300 302 120 225 198 264 235 234 261 236 232 226 227 224 216 203 216 213
22 335 340 313 305 246 151 323 260 314 280 250 228 161 150 137 125 128 131 143 164 155 181 181 183 201 210 226 244 253 250 256 269 328 240 225 166 244 254 224 219 225 219 235 247 255 250 233 224
307 316 270 229 216 275 329 252 248 305 317 36 138 134 123 128 142 151 159 161 158 182 155 149 154 200 221 214 230 243 252 253 250 227 249 253 193 192 228 210 220 234 235 150 317 288 257 242 241
162 227 233 357 301 317 229 245 277 350 338 56 86 98 121 141 162 169 156 159 173 170 170 170 174 194 228 222 235 244 243 248 252 268 259 217 192 219 221 216 226 239 274 226 220 245 245 236 247
198 182 113 239 204 229 252 289 177 342 345 359 352 143 128 116 99 131 154 172 179 181 182 178 180 191 203 221 228 223 222 230 241 247 259 264 248 223 238 211 219 247 220 218 222 227 234 232 235
345 326 54 292 199 194 272 268 224 98 49 0 335 358 90 132 147 194 180 163 167 175 184 189 193 196 205 213 225 231 239 235 222 220 235 240 251 257 258 262 231 227 255 217 223 233 236 235 236
271 87 65 234 283 175 138 246 325 141 291 120 290 318 341 354 345 313 202 189 174 169 170 170 170 170 189 208 232 253 241 234 237 233 229 222 230 247 247 255 268 261 241 238 228 223 223 227 225